Location: Angwan Shehu
(11.2514°N, 7.4613°E)
Time: 01:58:57
(UTC+00:00)

N. Korean satellite - Pass Details

Date: 14 March 2021
Orbit: 453 x 499 km, 97.2° (Epoch: 11 April)

Event Time Altitude Azimuth Distance (km) Brightness Sun altitude
Rises 03:45:35 0° 42° (NE) 2,571 10.9 -28.4°
Reaches altitude 10° 03:48:39 10° 71° (ENE) 1,694 10.2 -27.6°
Maximum altitude 03:50:20 13° 99° (E) 1,528 10.0 -27.2°
Drops below altitude 10° 03:52:02 10° 127° (SE) 1,697 9.9 -26.8°
Sets 03:55:06 0° 156° (SSE) 2,580 10.5 -26.0°
